When you browse on this site, cookies collect data to enhance your experience and personalize the content and advertising you see.
Visit our Privacy Policy to learn more. By continuing to use the site, you agree to this use of cookies and data.
  • In Netherlands
  • List of Countries
  • For 7 days
  • Water Temperature
  • Weather Map
  • Weather Widgets
  • user-avatar
    Login

    Hourly Weather Terpnikovo

    Today, 14 December, Saturday

    Time Temperature Precipitation Wind Pressure Humidity
    00:00 -2°C° 0 mm 4 mps 744 mmHg 85%
    01:00 -2°C° 0 mm 4 mps 744 mmHg 85%
    02:00 -2°C° 0 mm 4 mps 744 mmHg 83%
    03:00 -2°C° 0 mm 4 mps 744 mmHg 83%
    04:00 -2°C° 0 mm 4 mps 744 mmHg 83%
    05:00 -2°C° 0 mm 4 mps 743 mmHg 83%
    06:00 -2°C° 0 mm 4 mps 744 mmHg 83%
    07:00 -2°C° 0 mm 4 mps 744 mmHg 83%
    08:00 -2°C° 0 mm 4 mps 744 mmHg 83%
    09:00 -2°C° 0 mm 4 mps 744 mmHg 82%
    10:00 -2°C° 0 mm 5 mps 744 mmHg 80%
    11:00 -2°C° 0 mm 5 mps 744 mmHg 79%
    12:00 -2°C° 0 mm 5 mps 744 mmHg 80%
    13:00 -2°C° 0 mm 4 mps 744 mmHg 82%
    14:00 -2°C° 0 mm 4 mps 744 mmHg 84%
    15:00 -2°C° 0 mm 4 mps 744 mmHg 84%
    16:00 -2°C° 0 mm 4 mps 744 mmHg 84%
    17:00 -2°C° 0 mm 4 mps 744 mmHg 83%
    18:00 -2°C° 0 mm 4 mps 744 mmHg 84%
    19:00 -2°C° 0 mm 4 mps 744 mmHg 84%
    20:00 -2°C° 0 mm 4 mps 744 mmHg 85%
    21:00 -3°C° 0 mm 4 mps 743 mmHg 84%
    22:00 -3°C° 0 mm 4 mps 743 mmHg 84%
    23:00 -3°C° 0 mm 4 mps 743 mmHg 83%

    Tomorrow, 15 December, Sunday

    Time Temperature Precipitation Wind Pressure Humidity
    00:00 -3°C° 0.1 mm 4 mps 743 mmHg 87%
    01:00 -3°C° 0.1 mm 4 mps 743 mmHg 90%
    02:00 -3°C° 0.1 mm 4 mps 742 mmHg 93%
    03:00 -2°C° 0.1 mm 4 mps 742 mmHg 94%
    04:00 -1°C° 0.1 mm 4 mps 741 mmHg 94%
    05:00 0°C° 0.1 mm 4 mps 741 mmHg 94%
    06:00 0°C° 0.1 mm 4 mps 740 mmHg 94%
    07:00 0°C° 0.1 mm 5 mps 740 mmHg 93%
    08:00 +1°C° 0.1 mm 5 mps 740 mmHg 92%
    09:00 +1°C° 0 mm 5 mps 740 mmHg 92%
    10:00 +1°C° 0 mm 6 mps 739 mmHg 92%
    11:00 +1°C° 0 mm 6 mps 739 mmHg 92%
    12:00 +1°C° 0.3 mm 6 mps 738 mmHg 92%
    13:00 +2°C° 0.3 mm 6 mps 738 mmHg 92%
    14:00 +2°C° 0.3 mm 6 mps 738 mmHg 92%
    15:00 +2°C° 0.9 mm 5 mps 738 mmHg 93%
    16:00 +2°C° 0.9 mm 5 mps 738 mmHg 94%
    17:00 +1°C° 0.9 mm 5 mps 738 mmHg 95%
    18:00 +1°C° 0.3 mm 4 mps 738 mmHg 94%
    19:00 0°C° 0.3 mm 4 mps 738 mmHg 93%
    20:00 0°C° 0.3 mm 4 mps 738 mmHg 91%
    21:00 0°C° 0 mm 4 mps 739 mmHg 91%
    22:00 0°C° 0 mm 4 mps 739 mmHg 91%
    23:00 0°C° 0 mm 4 mps 740 mmHg 91%

    Day after tomorrow, 16 December, Monday

    Time Temperature Precipitation Wind Pressure Humidity
    00:00 -1°C° 0 mm 4 mps 740 mmHg 90%
    01:00 -1°C° 0 mm 4 mps 740 mmHg 89%
    02:00 -1°C° 0 mm 4 mps 741 mmHg 88%
    03:00 -1°C° 0 mm 4 mps 741 mmHg 88%
    04:00 -2°C° 0 mm 4 mps 741 mmHg 89%
    05:00 -2°C° 0 mm 4 mps 740 mmHg 90%
    06:00 -2°C° 0 mm 5 mps 740 mmHg 92%
    07:00 -2°C° 0 mm 5 mps 740 mmHg 93%
    08:00 -1°C° 0 mm 5 mps 740 mmHg 95%
    09:00 -1°C° 0.1 mm 5 mps 740 mmHg 93%
    10:00 0°C° 0.1 mm 5 mps 740 mmHg 91%
    11:00 +1°C° 0.1 mm 5 mps 740 mmHg 90%
    12:00 +1°C° 0 mm 5 mps 740 mmHg 88%
    13:00 -1°C° 0 mm 6 mps 740 mmHg 86%
    14:00 -1°C° 0 mm 6 mps 740 mmHg 84%
    15:00 -1°C° 0 mm 6 mps 741 mmHg 85%
    16:00 -1°C° 0 mm 6 mps 741 mmHg 86%
    17:00 -1°C° 0 mm 6 mps 741 mmHg 87%
    18:00 -1°C° 0 mm 6 mps 742 mmHg 85%
    19:00 -1°C° 0 mm 6 mps 742 mmHg 82%
    20:00 -1°C° 0 mm 6 mps 743 mmHg 79%
    21:00 -1°C° 0 mm 6 mps 743 mmHg 79%
    22:00 -1°C° 0 mm 6 mps 744 mmHg 79%
    23:00 -1°C° 0 mm 6 mps 744 mmHg 79%

    17 December, Tuesday

    Time Temperature Precipitation Wind Pressure Humidity
    00:00 -1°C° 0 mm 5 mps 745 mmHg 83%
    01:00 -1°C° 0 mm 4 mps 746 mmHg 86%
    02:00 -1°C° 0 mm 3 mps 746 mmHg 90%
    03:00 -1°C° 0 mm 3 mps 746 mmHg 91%
    04:00 -1°C° 0 mm 3 mps 747 mmHg 92%
    05:00 -1°C° 0 mm 3 mps 747 mmHg 93%
    06:00 -1°C° 0 mm 3 mps 747 mmHg 91%
    07:00 -1°C° 0 mm 3 mps 746 mmHg 89%
    08:00 -2°C° 0 mm 4 mps 746 mmHg 87%
    09:00 -1°C° 0.1 mm 4 mps 746 mmHg 89%
    10:00 -1°C° 0.1 mm 4 mps 746 mmHg 90%
    11:00 -1°C° 0.1 mm 4 mps 745 mmHg 92%
    12:00 0°C° 0.4 mm 5 mps 745 mmHg 91%
    13:00 0°C° 0.4 mm 5 mps 744 mmHg 91%
    14:00 0°C° 0.4 mm 5 mps 743 mmHg 90%
    15:00 +1°C° 0.2 mm 5 mps 743 mmHg 91%
    16:00 +1°C° 0.2 mm 5 mps 743 mmHg 91%
    17:00 +1°C° 0.2 mm 5 mps 743 mmHg 91%
    18:00 +1°C° 0.3 mm 5 mps 743 mmHg 92%
    19:00 +1°C° 0.3 mm 4 mps 743 mmHg 92%
    20:00 +1°C° 0.3 mm 4 mps 743 mmHg 93%
    21:00 +1°C° 0 mm 4 mps 743 mmHg 93%
    22:00 +1°C° 0 mm 4 mps 743 mmHg 94%
    23:00 +1°C° 0 mm 4 mps 744 mmHg 94%

    18 December, Wednesday

    Time Temperature Precipitation Wind Pressure Humidity
    00:00 +1°C° 0.1 mm 4 mps 744 mmHg 94%
    01:00 +2°C° 0.1 mm 3 mps 744 mmHg 95%
    02:00 +2°C° 0.1 mm 3 mps 744 mmHg 95%
    03:00 +2°C° 0.1 mm 3 mps 744 mmHg 95%
    04:00 +2°C° 0.1 mm 3 mps 743 mmHg 95%
    05:00 +2°C° 0.1 mm 3 mps 743 mmHg 95%
    06:00 +2°C° 0 mm 3 mps 743 mmHg 95%
    07:00 +2°C° 0 mm 3 mps 743 mmHg 95%
    08:00 +1°C° 0 mm 3 mps 743 mmHg 95%
    09:00 +2°C° 0 mm 3 mps 743 mmHg 94%
    10:00 +2°C° 0 mm 3 mps 743 mmHg 92%
    11:00 +2°C° 0 mm 3 mps 742 mmHg 91%
    12:00 +1°C° 0 mm 4 mps 742 mmHg 91%
    13:00 +1°C° 0 mm 4 mps 742 mmHg 90%
    14:00 +1°C° 0 mm 4 mps 741 mmHg 90%
    15:00 +1°C° 0 mm 4 mps 741 mmHg 92%
    16:00 +1°C° 0 mm 4 mps 741 mmHg 93%
    17:00 +1°C° 0 mm 4 mps 741 mmHg 94%
    18:00 +1°C° 0 mm 4 mps 741 mmHg 94%
    19:00 +1°C° 0 mm 4 mps 741 mmHg 95%
    20:00 +1°C° 0 mm 4 mps 741 mmHg 95%
    21:00 +1°C° 0 mm 5 mps 741 mmHg 95%
    22:00 +1°C° 0 mm 5 mps 741 mmHg 95%
    23:00 +1°C° 0 mm 5 mps 740 mmHg 96%

    19 December, Thursday

    Time Temperature Precipitation Wind Pressure Humidity
    00:00 +1°C° 0 mm 5 mps 740 mmHg 96%
    01:00 +1°C° 0 mm 5 mps 740 mmHg 96%
    02:00 +2°C° 0 mm 6 mps 739 mmHg 96%
    03:00 +2°C° 0 mm 6 mps 739 mmHg 95%
    04:00 +2°C° 0 mm 6 mps 738 mmHg 93%
    05:00 +2°C° 0 mm 6 mps 738 mmHg 92%
    06:00 +2°C° 0 mm 6 mps 738 mmHg 90%
    07:00 +2°C° 0 mm 5 mps 738 mmHg 88%
    08:00 +2°C° 0 mm 5 mps 738 mmHg 86%
    09:00 +2°C° 0 mm 5 mps 738 mmHg 83%
    10:00 +2°C° 0 mm 5 mps 738 mmHg 81%
    11:00 +3°C° 0 mm 5 mps 739 mmHg 78%
    12:00 +2°C° 0 mm 5 mps 739 mmHg 78%
    13:00 +2°C° 0 mm 5 mps 739 mmHg 77%
    14:00 +1°C° 0 mm 5 mps 739 mmHg 77%
    15:00 +1°C° 0 mm 5 mps 740 mmHg 78%
    16:00 0°C° 0 mm 5 mps 741 mmHg 79%
    17:00 -1°C° 0 mm 4 mps 741 mmHg 80%
    18:00 -1°C° 0 mm 4 mps 742 mmHg 82%
    19:00 -1°C° 0 mm 4 mps 742 mmHg 85%
    20:00 -1°C° 0 mm 3 mps 742 mmHg 87%
    21:00 -1°C° 0 mm 3 mps 743 mmHg 89%
    22:00 -1°C° 0 mm 3 mps 743 mmHg 91%
    23:00 -2°C° 0 mm 4 mps 743 mmHg 93%
    Show more